Change the Weather History Date:

Monday, March 3, 2014

  Actual Average Record
Temperature  
Mean Temperature 18 °F -  
Max Temperature 23 °F 51 °F 72 °F (2011)
Min Temperature 14 °F 32 °F 14 °F (2014)
Degree Days  
Heating Degree Days 46    
Moisture  
Dew Point 17 °F    
Average Humidity 91    
Maximum Humidity 100    
Minimum Humidity 80    
Precipitation  
Precipitation 0.00 in - - ()
Sea Level Pressure  
Sea Level Pressure 30.28 in    
Wind  
Wind Speed 9 mph (North)    
Max Wind Speed 13 mph    
Max Gust Speed -    
Visibility 6 miles    
Events Snow    
Averages and records for this station are not official NWS values.
T = Trace of Precipitation, MM = Missing Value Source: NWS Daily Summary

Daily Weather History Graph

Daily Weather History Graph

Search for Another Location

Airport or City:

Trip Planner

Search our weather history database for the weather conditions in past years. The results will help you decide how hot, cold, wet, or windy it might be!

Date:

Astronomy

Mar. 03, 2014 Rise Set
Actual Time 6:17 AM CST 5:46 PM CST
Civil Twilight 5:52 AM CST 6:12 PM CST
Nautical Twilight 5:22 AM CST 6:42 PM CST
Astronomical Twilight 4:52 AM CST 7:12 PM CST
Moon 7:30 AM CST 8:43 PM CST
Length of Visible Light 12h 20m
Length of Day
11h 28m
Waxing Crescent, 8% of the Moon is Illuminated
Mar 3
Waxing Crescent
Mar 8
First Quarter
Mar 16
Full
Mar 23
Last Quarter
Mar 30
New

Hourly Weather History & Observations

Time (CST) Temp. Windchill Dew Point Humidity Pressure Visibility Wind Dir Wind Speed Gust Speed Precip Events Conditions
12:58 AM 23.7 °F 12.6 °F 23.7 °F 100% 30.11 in 2.0 mi North 11.5 mph - 0.00 in Snow Light Snow
1:58 AM 21.6 °F 9.3 °F 21.4 °F 99% 30.11 in 2.0 mi NNE 12.7 mph - 0.00 in Snow Light Snow
2:58 AM 20.8 °F 9.0 °F 19.9 °F 96% 30.10 in 4.0 mi North 11.5 mph - 0.00 in Snow Light Snow
3:21 AM 21.2 °F 8.9 °F 19.4 °F 93% 30.09 in 6.0 mi North 12.7 mph - N/A Snow Light Snow
3:49 AM 19.4 °F 7.9 °F 19.4 °F 100% 30.11 in 6.0 mi North 10.4 mph - N/A Snow Light Snow
3:58 AM 20.3 °F 8.3 °F 19.4 °F 96% 30.14 in 6.0 mi North 11.5 mph - 0.00 in Snow Light Snow
4:58 AM 20.3 °F 9.8 °F 20.1 °F 99% 30.17 in 5.0 mi North 9.2 mph - 0.00 in Snow Light Snow
5:19 AM 19.4 °F 9.5 °F 19.4 °F 100% 30.17 in 2.5 mi North 8.1 mph - N/A Snow Light Snow
5:21 AM 19.4 °F 9.5 °F 19.4 °F 100% 30.17 in 2.5 mi North 8.1 mph - N/A Snow Light Snow
5:27 AM 19.4 °F 9.5 °F 19.4 °F 100% 30.18 in 2.5 mi North 8.1 mph - N/A Snow Light Snow
5:31 AM 19.4 °F 10.4 °F 19.4 °F 100% 30.19 in 3.0 mi North 6.9 mph - N/A Snow Light Snow
5:33 AM 19.4 °F 10.4 °F 19.4 °F 100% 30.19 in 3.0 mi North 6.9 mph - N/A Snow Light Snow
5:41 AM 19.4 °F 10.4 °F 19.4 °F 100% 30.20 in 3.0 mi North 6.9 mph - N/A Snow Light Snow
5:58 AM 19.0 °F 8.2 °F 18.5 °F 98% 30.23 in 2.5 mi North 9.2 mph - 0.00 in Snow Light Snow
6:13 AM 19.4 °F 9.5 °F 17.6 °F 93% 30.22 in 1.8 mi North 8.1 mph - N/A Snow Light Snow
6:15 AM 19.4 °F 8.6 °F 17.6 °F 93% 30.22 in 1.5 mi North 9.2 mph - N/A Snow Light Snow
6:18 AM 17.6 °F 7.3 °F 17.6 °F 100% 30.22 in 1.2 mi North 8.1 mph - N/A Snow Light Snow
6:23 AM 17.6 °F 8.2 °F 17.6 °F 100% 30.22 in 1.2 mi Variable 6.9 mph - N/A Snow Light Snow
6:40 AM 17.6 °F 9.3 °F 17.6 °F 100% 30.23 in 1.2 mi North 5.8 mph - N/A Snow Light Snow
6:41 AM 17.6 °F 8.2 °F 17.6 °F 100% 30.23 in 1.5 mi North 6.9 mph - N/A Snow Light Snow
6:58 AM 18.1 °F 11.3 °F 17.6 °F 98% 30.28 in 1.5 mi North 4.6 mph - 0.00 in Snow Light Snow
7:10 AM 17.6 °F 8.2 °F 17.6 °F 100% 30.25 in 1.8 mi North 6.9 mph - N/A Snow Light Snow
7:17 AM 17.6 °F 7.3 °F 17.6 °F 100% 30.24 in 2.0 mi North 8.1 mph - N/A Snow Light Snow
7:34 AM 17.6 °F 6.4 °F 17.6 °F 100% 30.25 in 1.8 mi North 9.2 mph - N/A Snow Light Snow
7:52 AM 17.6 °F 8.2 °F 17.6 °F 100% 30.26 in 1.2 mi North 6.9 mph - N/A Snow Light Snow
7:54 AM 17.6 °F 7.3 °F 17.6 °F 100% 30.26 in 1.5 mi North 8.1 mph - N/A Snow Light Snow
7:55 AM 17.6 °F 7.3 °F 17.6 °F 100% 30.26 in 1.5 mi North 8.1 mph - N/A Snow Light Snow
7:56 AM 17.6 °F 7.3 °F 17.6 °F 100% 30.26 in 1.2 mi North 8.1 mph - N/A Snow Light Snow
7:58 AM 17.8 °F 8.5 °F 17.1 °F 97% 30.29 in 1.2 mi North 6.9 mph - 0.00 in Snow Light Snow
8:01 AM 17.6 °F 8.2 °F 17.6 °F 100% 30.26 in 1.5 mi North 6.9 mph - N/A Snow Light Snow
8:12 AM 17.6 °F 9.3 °F 17.6 °F 100% 30.26 in 2.0 mi North 5.8 mph - N/A Snow Light Snow
8:22 AM 17.6 °F 8.2 °F 17.6 °F 100% 30.27 in 2.5 mi North 6.9 mph - N/A Snow Light Snow
8:38 AM 17.6 °F 8.2 °F 17.6 °F 100% 30.27 in 3.0 mi North 6.9 mph - N/A Snow Light Snow
8:48 AM 17.6 °F 7.3 °F 15.8 °F 93% 30.28 in 5.0 mi North 8.1 mph - N/A Snow Light Snow
8:58 AM 17.8 °F 6.6 °F 15.6 °F 91% 30.31 in 6.0 mi North 9.2 mph - 0.00 in Snow Light Snow
9:02 AM 17.6 °F 5.7 °F 15.8 °F 93% 30.27 in 7.0 mi North 10.4 mph - N/A Snow Light Snow
9:11 AM 17.6 °F 5.7 °F 15.8 °F 93% 30.28 in 7.0 mi North 10.4 mph - N/A Snow Light Snow
9:38 AM 17.6 °F 7.3 °F 15.8 °F 93% 30.29 in 4.0 mi North 8.1 mph - N/A Snow Light Snow
9:53 AM 17.6 °F 5.7 °F 15.8 °F 93% 30.28 in 7.0 mi North 10.4 mph - N/A Snow Light Snow
9:58 AM 18.0 °F 6.9 °F 15.8 °F 91% 30.31 in 8.0 mi North 9.2 mph - 0.00 in Snow Light Snow
10:06 AM 17.6 °F 5.7 °F 15.8 °F 93% 30.28 in 9.0 mi North 10.4 mph - N/A Snow Light Snow
10:11 AM 17.6 °F 7.3 °F 15.8 °F 93% 30.28 in 10.0 mi North 8.1 mph - N/A   Light Freezing Rain
10:58 AM 18.5 °F 8.4 °F 15.6 °F 89% 30.35 in 5.0 mi North 8.1 mph - 0.00 in Snow Light Snow
11:02 AM 17.6 °F 7.3 °F 15.8 °F 93% 30.32 in 4.0 mi North 8.1 mph - N/A Snow Light Snow
11:04 AM 17.6 °F 7.3 °F 15.8 °F 93% 30.32 in 4.0 mi North 8.1 mph - N/A Snow Light Snow
11:15 AM 19.4 °F 10.4 °F 15.8 °F 86% 30.32 in 6.0 mi North 6.9 mph - N/A Snow Light Snow
11:43 AM 19.4 °F 8.6 °F 15.8 °F 86% 30.32 in 10.0 mi North 9.2 mph - N/A Snow Snow
11:58 AM 20.3 °F 9.0 °F 16.5 °F 85% 30.35 in 10.0 mi North 10.4 mph - 0.00 in Snow Light Snow
12:04 PM 21.2 °F 11.7 °F 15.8 °F 80% 30.32 in 10.0 mi North 8.1 mph - N/A   Light Freezing Rain
12:22 PM 21.2 °F 11.7 °F 15.8 °F 80% 30.32 in 10.0 mi North 8.1 mph - N/A   Light Freezing Rain
12:35 PM 21.2 °F 10.9 °F 15.8 °F 80% 30.32 in 9.0 mi North 9.2 mph - N/A Snow Light Snow
12:36 PM 21.2 °F 10.9 °F 15.8 °F 80% 30.32 in 10.0 mi North 9.2 mph - N/A Snow Light Snow
12:58 PM 20.7 °F 11.9 °F 16.2 °F 83% 30.35 in 10.0 mi North 6.9 mph - 0.00 in Snow Light Snow
1:20 PM 21.2 °F 11.7 °F 15.8 °F 80% 30.32 in 10.0 mi North 8.1 mph - N/A Snow Light Snow
1:40 PM 21.2 °F 11.7 °F 17.6 °F 86% 30.32 in 10.0 mi North 8.1 mph - N/A   Overcast
1:54 PM 21.2 °F 10.9 °F 15.8 °F 80% 30.32 in 10.0 mi North 9.2 mph - N/A   Light Freezing Rain
1:58 PM 21.4 °F 11.9 °F 16.3 °F 81% 30.35 in 10.0 mi North 8.1 mph - 0.00 in   Light Freezing Rain
2:05 PM 21.2 °F 10.1 °F 17.6 °F 86% 30.32 in 10.0 mi North 10.4 mph - N/A   Overcast
2:08 PM 21.2 °F 10.1 °F 17.6 °F 86% 30.32 in 10.0 mi NNE 10.4 mph - N/A   Light Freezing Rain
2:11 PM 21.2 °F 10.1 °F 17.6 °F 86% 30.32 in 10.0 mi NNE 10.4 mph - N/A   Light Freezing Rain
2:26 PM 21.2 °F 12.6 °F 15.8 °F 80% 30.34 in 10.0 mi North 6.9 mph - N/A   Mostly Cloudy
2:58 PM 22.3 °F 13.9 °F 17.4 °F 82% 30.37 in 10.0 mi North 6.9 mph - 0.00 in   Overcast
3:08 PM 21.2 °F 11.7 °F 15.8 °F 80% 30.34 in 10.0 mi North 8.1 mph - N/A   Overcast
3:09 PM 21.2 °F 11.7 °F 15.8 °F 80% 30.34 in 10.0 mi North 8.1 mph - N/A   Overcast
3:11 PM 21.2 °F 12.6 °F 15.8 °F 80% 30.34 in 10.0 mi North 6.9 mph - N/A   Overcast
3:14 PM 21.2 °F 12.6 °F 17.6 °F 86% 30.34 in 10.0 mi North 6.9 mph - N/A   Overcast
3:15 PM 21.2 °F 12.6 °F 17.6 °F 86% 30.34 in 10.0 mi North 6.9 mph - N/A   Light Freezing Rain
3:26 PM 21.2 °F 11.7 °F 17.6 °F 86% 30.34 in 10.0 mi NNE 8.1 mph - N/A   Overcast
3:29 PM 23.0 °F 14.7 °F 17.6 °F 80% 30.35 in 10.0 mi North 6.9 mph - N/A   Overcast
3:58 PM 21.9 °F 12.5 °F 17.2 °F 82% 30.37 in 10.0 mi North 8.1 mph - 0.00 in   Overcast
4:27 PM 21.2 °F 11.7 °F 17.6 °F 86% 30.34 in 10.0 mi NNE 8.1 mph - N/A   Overcast
4:58 PM 21.6 °F 13.0 °F 16.7 °F 82% 30.37 in 10.0 mi North 6.9 mph - N/A   Overcast
5:59 PM 20.8 °F 14.4 °F 16.3 °F 83% 30.40 in 10.0 mi North 4.6 mph - N/A   Overcast
6:16 PM 21.2 °F 14.9 °F 15.8 °F 80% 30.36 in 10.0 mi North 4.6 mph - N/A   Scattered Clouds
6:44 PM 19.4 °F 12.8 °F 15.8 °F 86% 30.36 in 10.0 mi North 4.6 mph - N/A   Mostly Cloudy
6:58 PM 20.1 °F 15.2 °F 16.0 °F 84% 30.40 in 10.0 mi North 3.5 mph - N/A   Mostly Cloudy
6:59 PM 19.4 °F - 15.8 °F 86% 30.36 in 10.0 mi North 2.3 mph - N/A   Scattered Clouds
7:58 PM 17.6 °F 12.3 °F 15.3 °F 91% 30.39 in 10.0 mi North 3.5 mph - N/A   Clear
8:58 PM 16.0 °F - 14.9 °F 95% 30.40 in 10.0 mi North 2.3 mph - N/A   Clear
9:58 PM 16.9 °F 11.5 °F 16.7 °F 99% 30.39 in 10.0 mi North 3.5 mph - N/A   Clear
10:58 PM 14.5 °F 7.1 °F 14.2 °F 98% 30.37 in 10.0 mi North 4.6 mph - N/A   Clear
11:58 PM 16.3 °F 10.8 °F 15.3 °F 96% 30.38 in 10.0 mi NNW 3.5 mph - N/A   Clear